QPF
0.02 0.02 0.02 0.01 0.01 0.02 0.02 0.02 0.01 0.01 0.00 0.00 0.00 0.01 0.01 0.01 0.01 0.01 0.01 0.01 0.02 0.04 0.05 0.05 0.04 0.04 0.04 0.03 0.03 0.02 0.01 0.01 0.01 0.01 0.02 0.02 0.02 0.02 0.01 0.01 0.02 0.04 0.04
0.01 0.02 0.02 0.01 0.01 0.01 0.01 0.01 0.00 0.00 0.00 0.00 0.00 0.00 0.01 0.01 0.01 0.01 0.01 0.01 0.01 0.02 0.04 0.05 0.05 0.05 0.05 0.04 0.03 0.02 0.02 0.01 0.01 0.02 0.02 0.02 0.02 0.02 0.03 0.01 0.01 0.02 0.04
0.01 0.01 0.02 0.02 0.01 0.01 0.01 0.00 0.00 0.00 0.00 0.00 0.00 0.00 0.01 0.01 0.01 0.01 0.01 0.01 0.01 0.02 0.03 0.04 0.04 0.04 0.04 0.04 0.04 0.03 0.02 0.02 0.02 0.01 0.01 0.01 0.02 0.02 0.03 0.03 0.02 0.02 0.03
0.02 0.01 0.02 0.02 0.01 0.01 0.01 0.01 0.00 0.00 0.00 0.00 0.00 0.00 0.00 0.01 0.01 0.01 0.01 0.01 0.01 0.02 0.03 0.03 0.03 0.03 0.02 0.03 0.03 0.04 0.03 0.03 0.02 0.02 0.01 0.01 0.01 0.02 0.02 0.02 0.03 0.04 0.04
0.02 0.02 0.02 0.02 0.02 0.01 0.01 0.01 0.01 0.01 0.00 0.00 0.00 0.00 0.00 0.00 0.02 0.02 0.01 0.01 0.01 0.02 0.03 0.03 0.03 0.02 0.02 0.02 0.03 0.04 0.04 0.03 0.02 0.02 0.02 0.01 0.01 0.01 0.02 0.02 0.02 0.04 0.05
0.03 0.02 0.03 0.03 0.02 0.01 0.02 0.01 0.01 0.01 0.01 0.01 0.00 0.00 0.01 0.01 0.01 0.03 0.03 0.02 0.02 0.02 0.03 0.03 0.03 0.02 0.02 0.02 0.02 0.03 0.03 0.03 0.03 0.02 0.01 0.01 0.01 0.01 0.01 0.01 0.02 0.03 0.05
0.04 0.03 0.03 0.03 0.03 0.02 0.02 0.02 0.01 0.01 0.00 0.00 0.00 0.01 0.01 0.01 0.01 0.02 0.04 0.04 0.04 0.03 0.04 0.05 0.03 0.02 0.02 0.02 0.02 0.03 0.03 0.03 0.03 0.02 0.02 0.01 0.01 0.01 0.02 0.01 0.02 0.03 0.05
0.04 0.04 0.04 0.03 0.03 0.03 0.02 0.02 0.01 0.01 0.00 0.00 0.00 0.01 0.01 0.02 0.02 0.02 0.03 0.04 0.05 0.05 0.05 0.06 0.04 0.04 0.03 0.03 0.03 0.03 0.03 0.03 0.03 0.03 0.02 0.02 0.02 0.02 0.02 0.02 0.02 0.04 0.05
0.06 0.05 0.05 0.04 0.03 0.03 0.04 0.03 0.02 0.01 0.01 0.01 0.00 0.01 0.01 0.01 0.02 0.02 0.03 0.04 0.04 0.05 0.05 0.06 0.05 0.04 0.04 0.04 0.03 0.03 0.03 0.03 0.03 0.03 0.03 0.02 0.02 0.02 0.02 0.02 0.03 0.05 0.08
0.07 0.08 0.07 0.06 0.04 0.03 0.04 0.04 0.04 0.02 0.02 0.01 0.01 0.01 0.01 0.01 0.01 0.02 0.02 0.03 0.04 0.04 0.05 0.06 0.05 0.04 0.04 0.04 0.04 0.03 0.03 0.02 0.02 0.03 0.03 0.03 0.03 0.02 0.02 0.02 0.03 0.04 0.05
0.05 0.06 0.07 0.08 0.07 0.05 0.04 0.04 0.04 0.03 0.02 0.02 0.02 0.01 0.01 0.01 0.01 0.01 0.02 0.03 0.03 0.04 0.04 0.04 0.04 0.04 0.04 0.04 0.04 0.03 0.02 0.02 0.02 0.02 0.02 0.02 0.02 0.02 0.02 0.02 0.02 0.03 0.03
0.04 0.04 0.04 0.05 0.06 0.07 0.06 0.04 0.03 0.03 0.03 0.03 0.02 0.02 0.02 0.01 0.01 0.01 0.01 0.02 0.03 0.04 0.04 0.04 0.04 0.06 0.06 0.04 0.04 0.03 0.02 0.02 0.02 0.01 0.01 0.02 0.02 0.02 0.02 0.01 0.01 0.02 0.03
0.05 0.03 0.03 0.04 0.04 0.04 0.05 0.06 0.05 0.03 0.03 0.03 0.03 0.03 0.03 0.02 0.02 0.02 0.02 0.02 0.03 0.04 0.05 0.05 0.07 0.06 0.06 0.05 0.04 0.03 0.02 0.02 0.01 0.01 0.01 0.02 0.02 0.01 0.02 0.02 0.01 0.02 0.03
0.05 0.03 0.03 0.03 0.04 0.03 0.03 0.04 0.05 0.04 0.03 0.03 0.03 0.03 0.03 0.03 0.03 0.03 0.02 0.02 0.04 0.05 0.06 0.05 0.05 0.05 0.07 0.05 0.03 0.03 0.02 0.02 0.02 0.01 0.01 0.01 0.01 0.01 0.01 0.02 0.03 0.02 0.03
0.05 0.04 0.03 0.03 0.04 0.03 0.03 0.03 0.03 0.04 0.03 0.03 0.03 0.03 0.03 0.03 0.03 0.03 0.03 0.02 0.03 0.06 0.06 0.06 0.06 0.05 0.03 0.03 0.03 0.02 0.01 0.02 0.01 0.01 0.01 0.02 0.02 0.01 0.02 0.03 0.05 0.04 0.03
0.05 0.05 0.04 0.04 0.04 0.03 0.03 0.03 0.03 0.03 0.03 0.03 0.03 0.03 0.03 0.02 0.02 0.02 0.02 0.02 0.02 0.04 0.05 0.04 0.03 0.02 0.01 0.01 0.02 0.02 0.01 0.01 0.01 0.01 0.01 0.02 0.02 0.02 0.02 0.02 0.03 0.03 0.04
0.05 0.05 0.05 0.05 0.05 0.04 0.04 0.04 0.03 0.03 0.03 0.03 0.03 0.03 0.03 0.03 0.02 0.02 0.02 0.02 0.02 0.02 0.03 0.04 0.04 0.03 0.02 0.01 0.01 0.01 0.00 0.00 0.01 0.01 0.01 0.01 0.01 0.02 0.02 0.02 0.01 0.01 0.02
0.04 0.05 0.05 0.05 0.05 0.04 0.04 0.04 0.04 0.04 0.04 0.04 0.03 0.03 0.03 0.04 0.03 0.03 0.02 0.02 0.02 0.02 0.03 0.03 0.03 0.03 0.03 0.02 0.01 0.00 0.00 0.00 0.00 0.01 0.01 0.01 0.01 0.02 0.02 0.02 0.01 0.01 0.01
0.04 0.04 0.05 0.05 0.04 0.04 0.04 0.04 0.04 0.05 0.05 0.04 0.03 0.03 0.03 0.03 0.03 0.03 0.03 0.02 0.02 0.01 0.01 0.01 0.01 0.01 0.01 0.01 0.01 0.00 0.00 0.00 0.00 0.00 0.00 0.00 0.01 0.01 0.02 0.02 0.01 0.00 0.00
0.05 0.05 0.05 0.05 0.05 0.04 0.03 0.03 0.04 0.05 0.05 0.05 0.05 0.04 0.03 0.03 0.03 0.03 0.03 0.03 0.02 0.02 0.02 0.02 0.02 0.01 0.01 0.00 0.00 0.00 0.00 0.00 0.00 0.00 0.00 0.00 0.00 0.01 0.01 0.01 0.01 0.00 0.00
0.05 0.05 0.05 0.05 0.04 0.04 0.04 0.04 0.04 0.05 0.05 0.06 0.06 0.06 0.05 0.04 0.03 0.03 0.03 0.03 0.03 0.03 0.02 0.02 0.02 0.02 0.01 0.01 0.00 0.00 0.00 0.00 0.00 0.00 0.00 0.00 0.00 0.00 0.00 0.01 0.01 0.00 0.00
0.03 0.04 0.04 0.04 0.04 0.04 0.05 0.05 0.04 0.05 0.05 0.06 0.06 0.06 0.06 0.06 0.05 0.04 0.03 0.02 0.02 0.03 0.03 0.02 0.02 0.01 0.01 0.01 0.00 0.00 0.00 0.00 0.00 0.00 0.00 0.00 0.00 0.00 0.00 0.00 0.01 0.01 0.01
0.03 0.04 0.04 0.04 0.04 0.05 0.05 0.04 0.04 0.05 0.05 0.05 0.05 0.05 0.05 0.05 0.05 0.05 0.04 0.03 0.03 0.02 0.02 0.02 0.02 0.01 0.01 0.01 0.01 0.01 0.00 0.00 0.00 0.00 0.00 0.00 0.00 0.00 0.00 0.00 0.00 0.01 0.01
0.03 0.04 0.04 0.04 0.04 0.05 0.05 0.05 0.04 0.04 0.05 0.05 0.05 0.05 0.05 0.05 0.04 0.04 0.04 0.04 0.03 0.02 0.02 0.02 0.01 0.01 0.01 0.01 0.01 0.01 0.01 0.00 0.00 0.00 0.00 0.00 0.00 0.00 0.00 0.00 0.00 0.00 0.00
0.04 0.04 0.04 0.03 0.03 0.04 0.04 0.04 0.05 0.04 0.03 0.04 0.04 0.04 0.04 0.04 0.04 0.04 0.04 0.03 0.03 0.02 0.02 0.01 0.01 0.01 0.01 0.01 0.01 0.01 0.01 0.01 0.01 0.00 0.00 0.00 0.00 0.00 0.00 0.00 0.00 0.00 0.00
0.04 0.03 0.03 0.03 0.03 0.03 0.04 0.04 0.04 0.04 0.03 0.03 0.03 0.03 0.04 0.04 0.04 0.04 0.04 0.03 0.03 0.02 0.02 0.02 0.01 0.01 0.01 0.01 0.01 0.01 0.01 0.01 0.01 0.00 0.00 0.00 0.00 0.00 0.00 0.00 0.00 0.00 0.00
MSLP
1020.22 1020.67 1021.11 1021.54 1021.97 1022.38 1022.78 1023.16 1023.53 1023.86 1024.18 1024.47 1024.74 1024.99 1025.24 1025.47 1025.70 1025.93 1026.14 1026.34 1026.53 1026.71 1026.89 1027.09 1027.32 1027.58 1027.88 1028.21 1028.55 1028.87 1029.17 1029.42 1029.61 1029.75 1029.86 1029.95 1030.05 1030.17 1030.32 1030.50 1030.68 1030.86 1031.02
1020.53 1020.98 1021.43 1021.88 1022.34 1022.79 1023.24 1023.67 1024.07 1024.45 1024.80 1025.11 1025.40 1025.67 1025.91 1026.14 1026.36 1026.56 1026.75 1026.91 1027.07 1027.22 1027.39 1027.57 1027.79 1028.05 1028.36 1028.69 1029.03 1029.37 1029.68 1029.94 1030.15 1030.30 1030.42 1030.53 1030.63 1030.75 1030.90 1031.07 1031.25 1031.42 1031.58
1020.80 1021.25 1021.71 1022.19 1022.68 1023.17 1023.66 1024.14 1024.60 1025.02 1025.41 1025.76 1026.07 1026.36 1026.62 1026.85 1027.06 1027.24 1027.41 1027.55 1027.67 1027.79 1027.92 1028.08 1028.28 1028.52 1028.80 1029.12 1029.47 1029.81 1030.13 1030.41 1030.64 1030.82 1030.97 1031.10 1031.22 1031.34 1031.49 1031.65 1031.81 1031.98 1032.13
1021.05 1021.50 1021.97 1022.47 1022.99 1023.52 1024.06 1024.58 1025.08 1025.54 1025.97 1026.36 1026.71 1027.03 1027.31 1027.56 1027.78 1027.96 1028.11 1028.23 1028.33 1028.42 1028.51 1028.63 1028.78 1028.99 1029.24 1029.53 1029.86 1030.19 1030.52 1030.82 1031.08 1031.30 1031.48 1031.64 1031.78 1031.92 1032.06 1032.20 1032.35 1032.50 1032.64
1021.29 1021.74 1022.23 1022.74 1023.28 1023.84 1024.40 1024.95 1025.49 1025.98 1026.45 1026.88 1027.27 1027.63 1027.94 1028.23 1028.47 1028.67 1028.82 1028.94 1029.02 1029.08 1029.14 1029.22 1029.32 1029.48 1029.68 1029.93 1030.22 1030.54 1030.86 1031.17 1031.46 1031.71 1031.93 1032.12 1032.29 1032.43 1032.57 1032.70 1032.83 1032.96 1033.08
1021.52 1021.98 1022.47 1023.00 1023.55 1024.12 1024.69 1025.26 1025.80 1026.32 1026.82 1027.28 1027.71 1028.11 1028.48 1028.80 1029.08 1029.31 1029.49 1029.62 1029.70 1029.75 1029.78 1029.82 1029.88 1029.98 1030.13 1030.33 1030.58 1030.86 1031.16 1031.47 1031.77 1032.05 1032.30 1032.52 1032.70 1032.86 1033.00 1033.12 1033.23 1033.33 1033.43
1021.74 1022.20 1022.70 1023.23 1023.78 1024.35 1024.91 1025.47 1026.01 1026.54 1027.04 1027.53 1028.00 1028.45 1028.86 1029.24 1029.58 1029.85 1030.07 1030.22 1030.32 1030.37 1030.40 1030.41 1030.44 1030.49 1030.59 1030.73 1030.93 1031.16 1031.43 1031.73 1032.03 1032.32 1032.58 1032.82 1033.02 1033.18 1033.32 1033.43 1033.52 1033.60 1033.69
1021.91 1022.39 1022.90 1023.43 1023.97 1024.52 1025.06 1025.59 1026.11 1026.63 1027.13 1027.64 1028.13 1028.62 1029.08 1029.51 1029.90 1030.23 1030.49 1030.69 1030.82 1030.90 1030.93 1030.94 1030.95 1030.98 1031.03 1031.12 1031.27 1031.45 1031.68 1031.94 1032.22 1032.50 1032.77 1033.01 1033.21 1033.38 1033.51 1033.62 1033.70 1033.77 1033.84
1022.03 1022.53 1023.05 1023.57 1024.10 1024.62 1025.13 1025.62 1026.11 1026.60 1027.10 1027.60 1028.12 1028.63 1029.13 1029.61 1030.05 1030.43 1030.74 1030.98 1031.16 1031.27 1031.33 1031.36 1031.38 1031.39 1031.42 1031.48 1031.58 1031.71 1031.90 1032.11 1032.35 1032.60 1032.85 1033.08 1033.29 1033.46 1033.59 1033.69 1033.77 1033.84 1033.90
1022.06 1022.59 1023.12 1023.64 1024.15 1024.64 1025.11 1025.57 1026.02 1026.49 1026.97 1027.47 1027.99 1028.52 1029.05 1029.56 1030.03 1030.45 1030.80 1031.09 1031.31 1031.46 1031.57 1031.63 1031.67 1031.70 1031.72 1031.76 1031.82 1031.92 1032.05 1032.21 1032.40 1032.61 1032.83 1033.04 1033.24 1033.41 1033.55 1033.66 1033.74 1033.82 1033.88
1022.00 1022.55 1023.09 1023.62 1024.11 1024.58 1025.02 1025.45 1025.87 1026.31 1026.77 1027.26 1027.78 1028.32 1028.86 1029.38 1029.88 1030.32 1030.70 1031.02 1031.27 1031.47 1031.62 1031.73 1031.81 1031.86 1031.90 1031.94 1031.98 1032.04 1032.12 1032.23 1032.37 1032.53 1032.71 1032.90 1033.09 1033.25 1033.40 1033.53 1033.63 1033.71 1033.79
1021.83 1022.41 1022.96 1023.49 1023.98 1024.44 1024.86 1025.27 1025.67 1026.09 1026.54 1027.03 1027.54 1028.07 1028.61 1029.14 1029.63 1030.07 1030.46 1030.80 1031.08 1031.32 1031.51 1031.67 1031.79 1031.88 1031.95 1031.99 1032.03 1032.06 1032.11 1032.17 1032.26 1032.37 1032.51 1032.67 1032.84 1033.01 1033.16 1033.30 1033.43 1033.53 1033.62
1021.56 1022.16 1022.73 1023.27 1023.77 1024.22 1024.64 1025.03 1025.43 1025.85 1026.29 1026.77 1027.28 1027.80 1028.33 1028.84 1029.32 1029.76 1030.14 1030.48 1030.78 1031.04 1031.26 1031.46 1031.62 1031.76 1031.86 1031.93 1031.97 1031.99 1032.00 1032.02 1032.07 1032.14 1032.24 1032.37 1032.52 1032.68 1032.85 1033.00 1033.14 1033.26 1033.36
1021.20 1021.82 1022.41 1022.96 1023.46 1023.92 1024.35 1024.75 1025.16 1025.57 1026.02 1026.50 1027.00 1027.52 1028.03 1028.53 1028.98 1029.40 1029.77 1030.10 1030.40 1030.67 1030.92 1031.15 1031.35 1031.52 1031.66 1031.75 1031.81 1031.83 1031.83 1031.82 1031.82 1031.85 1031.92 1032.02 1032.14 1032.30 1032.46 1032.62 1032.76 1032.89 1033.00
1020.77 1021.39 1022.00 1022.57 1023.09 1023.57 1024.01 1024.43 1024.84 1025.27 1025.72 1026.20 1026.70 1027.21 1027.71 1028.19 1028.64 1029.03 1029.39 1029.71 1030.00 1030.28 1030.54 1030.79 1031.02 1031.22 1031.39 1031.50 1031.58 1031.61 1031.60 1031.58 1031.56 1031.55 1031.58 1031.65 1031.74 1031.87 1032.02 1032.17 1032.30 1032.42 1032.52
1020.28 1020.91 1021.53 1022.12 1022.66 1023.16 1023.62 1024.06 1024.49 1024.93 1025.39 1025.87 1026.37 1026.88 1027.37 1027.84 1028.27 1028.66 1029.01 1029.32 1029.61 1029.89 1030.15 1030.41 1030.66 1030.89 1031.08 1031.22 1031.31 1031.36 1031.36 1031.33 1031.29 1031.26 1031.26 1031.28 1031.34 1031.43 1031.54 1031.66 1031.77 1031.86 1031.94
1019.75 1020.39 1021.02 1021.62 1022.19 1022.71 1023.20 1023.65 1024.10 1024.54 1025.01 1025.49 1025.99 1026.49 1026.99 1027.46 1027.90 1028.29 1028.64 1028.95 1029.25 1029.52 1029.79 1030.06 1030.31 1030.55 1030.76 1030.92 1031.04 1031.10 1031.11 1031.09 1031.04 1030.99 1030.95 1030.93 1030.94 1030.98 1031.03 1031.10 1031.17 1031.22 1031.27
1019.20 1019.84 1020.48 1021.10 1021.70 1022.24 1022.75 1023.22 1023.67 1024.12 1024.58 1025.06 1025.56 1026.06 1026.57 1027.05 1027.50 1027.91 1028.28 1028.61 1028.90 1029.18 1029.46 1029.72 1029.98 1030.22 1030.44 1030.62 1030.76 1030.84 1030.87 1030.85 1030.80 1030.74 1030.66 1030.60 1030.56 1030.53 1030.52 1030.52 1030.53 1030.54 1030.54
1018.65 1019.28 1019.94 1020.58 1021.20 1021.77 1022.30 1022.78 1023.24 1023.68 1024.13 1024.60 1025.09 1025.60 1026.11 1026.61 1027.09 1027.52 1027.91 1028.26 1028.58 1028.87 1029.14 1029.40 1029.66 1029.90 1030.12 1030.31 1030.46 1030.56 1030.61 1030.61 1030.56 1030.48 1030.38 1030.28 1030.18 1030.09 1030.01 1029.94 1029.88 1029.84 1029.81
1018.12 1018.75 1019.42 1020.09 1020.73 1021.33 1021.87 1022.36 1022.82 1023.25 1023.69 1024.14 1024.62 1025.12 1025.64 1026.16 1026.66 1027.13 1027.55 1027.93 1028.26 1028.55 1028.82 1029.08 1029.32 1029.55 1029.77 1029.97 1030.12 1030.24 1030.31 1030.32 1030.29 1030.20 1030.09 1029.95 1029.80 1029.65 1029.50 1029.37 1029.26 1029.17 1029.11
1017.64 1018.27 1018.96 1019.65 1020.32 1020.94 1021.50 1022.00 1022.44 1022.86 1023.27 1023.71 1024.17 1024.66 1025.18 1025.72 1026.24 1026.73 1027.18 1027.58 1027.93 1028.22 1028.49 1028.73 1028.95 1029.17 1029.38 1029.57 1029.73 1029.86 1029.95 1029.98 1029.95 1029.88 1029.75 1029.59 1029.41 1029.22 1029.03 1028.85 1028.70 1028.59 1028.51
1017.28 1017.91 1018.61 1019.32 1020.01 1020.66 1021.22 1021.72 1022.15 1022.55 1022.94 1023.35 1023.78 1024.26 1024.78 1025.31 1025.84 1026.35 1026.82 1027.23 1027.58 1027.88 1028.13 1028.35 1028.55 1028.74 1028.93 1029.11 1029.28 1029.42 1029.52 1029.57 1029.56 1029.49 1029.37 1029.21 1029.01 1028.80 1028.59 1028.40 1028.24 1028.11 1028.04
1017.08 1017.71 1018.42 1019.15 1019.85 1020.50 1021.08 1021.57 1021.98 1022.36 1022.72 1023.09 1023.50 1023.95 1024.44 1024.97 1025.50 1026.01 1026.47 1026.88 1027.23 1027.51 1027.74 1027.93 1028.10 1028.27 1028.44 1028.61 1028.77 1028.92 1029.03 1029.10 1029.12 1029.07 1028.97 1028.82 1028.63 1028.42 1028.22 1028.04 1027.89 1027.78 1027.73
1017.12 1017.75 1018.45 1019.18 1019.89 1020.53 1021.09 1021.57 1021.96 1022.30 1022.63 1022.96 1023.33 1023.75 1024.21 1024.71 1025.22 1025.71 1026.16 1026.55 1026.88 1027.14 1027.34 1027.50 1027.64 1027.78 1027.93 1028.08 1028.24 1028.39 1028.52 1028.62 1028.66 1028.64 1028.57 1028.45 1028.29 1028.12 1027.95 1027.80 1027.68 1027.62 1027.60
1017.45 1018.06 1018.75 1019.46 1020.14 1020.76 1021.30 1021.74 1022.09 1022.40 1022.68 1022.97 1023.29 1023.66 1024.09 1024.55 1025.02 1025.48 1025.90 1026.26 1026.55 1026.78 1026.95 1027.09 1027.20 1027.31 1027.44 1027.58 1027.74 1027.90 1028.05 1028.16 1028.23 1028.25 1028.22 1028.14 1028.03 1027.91 1027.79 1027.69 1027.63 1027.61 1027.64
1018.08 1018.67 1019.32 1019.99 1020.62 1021.19 1021.68 1022.07 1022.38 1022.63 1022.86 1023.10 1023.37 1023.70 1024.07 1024.48 1024.90 1025.32 1025.69 1026.02 1026.27 1026.46 1026.61 1026.71 1026.80 1026.90 1027.02 1027.16 1027.32 1027.49 1027.65 1027.79 1027.90 1027.95 1027.97 1027.94 1027.88 1027.81 1027.75 1027.71 1027.71 1027.74 1027.82
Thickness
5609 5608 5608 5607 5607 5607 5607 5606 5606 5605 5605 5604 5604 5603 5603 5603 5602 5602 5603 5604 5605 5606 5607 5608 5608 5609 5610 5610 5611 5612 5613 5614 5615 5615 5616 5616 5617 5619 5620 5620 5621 5622 5622
5603 5602 5601 5600 5599 5599 5599 5598 5598 5597 5596 5595 5594 5594 5594 5594 5593 5594 5594 5594 5595 5596 5597 5599 5600 5600 5601 5602 5603 5604 5604 5605 5606 5607 5607 5608 5609 5610 5611 5612 5613 5614 5615
5596 5595 5593 5592 5592 5591 5591 5590 5589 5588 5587 5586 5585 5585 5585 5585 5584 5585 5585 5585 5585 5586 5587 5589 5590 5591 5591 5592 5593 5594 5595 5596 5597 5598 5599 5600 5601 5601 5603 5603 5604 5605 5606
5588 5587 5586 5585 5584 5583 5583 5582 5581 5579 5578 5576 5575 5575 5575 5575 5575 5575 5576 5576 5576 5576 5577 5578 5579 5580 5581 5582 5583 5584 5585 5586 5587 5588 5589 5590 5591 5593 5594 5594 5596 5597 5597
5581 5581 5579 5578 5577 5576 5575 5574 5573 5571 5569 5567 5566 5566 5566 5566 5566 5566 5566 5566 5567 5567 5567 5568 5569 5569 5571 5572 5573 5574 5575 5576 5577 5578 5579 5581 5582 5584 5584 5585 5586 5587 5588
5574 5573 5572 5571 5569 5568 5567 5566 5564 5563 5561 5559 5558 5557 5556 5556 5556 5556 5557 5557 5557 5558 5558 5558 5559 5559 5560 5561 5562 5563 5564 5565 5567 5568 5570 5571 5572 5573 5575 5576 5577 5578 5579
5566 5565 5564 5563 5562 5560 5559 5558 5556 5554 5552 5552 5549 5546 5545 5546 5546 5547 5547 5548 5548 5548 5548 5549 5549 5549 5549 5550 5551 5552 5553 5555 5556 5557 5559 5560 5561 5563 5565 5566 5567 5568 5569
5557 5557 5556 5555 5554 5552 5551 5550 5549 5546 5544 5545 5543 5540 5535 5534 5535 5537 5538 5539 5539 5539 5539 5539 5539 5539 5540 5540 5540 5540 5542 5543 5544 5546 5548 5549 5551 5553 5555 5556 5557 5558 5559
5549 5549 5548 5547 5546 5545 5544 5543 5542 5541 5539 5537 5538 5536 5532 5528 5524 5525 5527 5529 5529 5529 5529 5529 5529 5529 5529 5529 5529 5529 5530 5531 5533 5535 5537 5539 5540 5542 5544 5545 5546 5547 5548
5539 5539 5539 5538 5537 5537 5536 5535 5535 5535 5533 5530 5529 5529 5529 5526 5519 5514 5515 5517 5518 5519 5519 5519 5519 5519 5519 5519 5518 5517 5518 5519 5521 5523 5525 5528 5530 5531 5533 5534 5535 5536 5537
5529 5530 5529 5529 5529 5528 5528 5527 5526 5526 5526 5524 5522 5520 5520 5518 5516 5510 5506 5505 5506 5507 5509 5509 5509 5509 5508 5508 5507 5506 5507 5508 5509 5511 5514 5516 5519 5520 5521 5523 5524 5525 5525
5520 5520 5520 5520 5520 5520 5519 5519 5518 5518 5517 5517 5515 5514 5512 5511 5509 5506 5501 5497 5495 5495 5497 5499 5499 5499 5498 5497 5496 5496 5496 5496 5497 5499 5502 5505 5507 5508 5510 5511 5512 5513 5514
5510 5511 5511 5511 5511 5511 5510 5510 5509 5509 5509 5508 5507 5506 5505 5504 5503 5500 5496 5490 5487 5485 5487 5487 5488 5488 5487 5487 5486 5485 5485 5485 5486 5488 5490 5493 5494 5496 5498 5499 5500 5501 5502
5500 5501 5501 5501 5502 5501 5501 5500 5500 5499 5499 5498 5498 5497 5496 5495 5494 5491 5489 5484 5479 5475 5476 5476 5477 5477 5476 5476 5475 5475 5475 5475 5475 5477 5479 5481 5483 5484 5486 5487 5488 5489 5489
5489 5490 5491 5491 5491 5491 5491 5490 5490 5489 5488 5487 5487 5486 5485 5484 5483 5482 5481 5479 5474 5468 5465 5465 5465 5466 5465 5464 5464 5464 5464 5464 5464 5466 5467 5469 5471 5472 5473 5475 5476 5477 5477
5479 5479 5479 5480 5480 5480 5480 5480 5479 5478 5477 5476 5475 5474 5474 5473 5472 5471 5470 5469 5468 5465 5458 5456 5455 5455 5453 5452 5452 5452 5453 5452 5453 5454 5456 5457 5458 5460 5461 5462 5463 5464 5464
5467 5468 5468 5468 5469 5469 5469 5469 5468 5467 5465 5464 5463 5463 5462 5461 5460 5459 5458 5457 5456 5454 5448 5445 5444 5443 5442 5440 5440 5440 5441 5441 5441 5443 5444 5445 5446 5447 5448 5449 5450 5451 5451
5456 5457 5456 5457 5457 5458 5457 5457 5457 5456 5454 5453 5452 5451 5450 5449 5448 5447 5445 5444 5443 5442 5438 5433 5431 5430 5430 5429 5428 5428 5429 5429 5429 5431 5432 5433 5433 5434 5434 5436 5437 5438 5438
5445 5445 5445 5445 5446 5446 5446 5446 5445 5444 5443 5442 5441 5439 5438 5437 5436 5434 5433 5431 5430 5429 5427 5423 5419 5418 5417 5416 5416 5416 5416 5416 5417 5418 5419 5419 5420 5421 5422 5423 5423 5424 5425
5433 5433 5433 5433 5434 5434 5435 5434 5433 5432 5431 5430 5429 5427 5426 5425 5424 5422 5420 5419 5417 5415 5412 5409 5407 5405 5403 5403 5402 5402 5402 5402 5403 5404 5405 5406 5407 5408 5408 5409 5410 5411 5411
5421 5421 5420 5421 5421 5421 5422 5422 5420 5419 5418 5416 5415 5414 5413 5412 5411 5410 5408 5406 5405 5402 5399 5396 5394 5392 5390 5389 5388 5388 5387 5387 5389 5390 5391 5393 5394 5394 5395 5395 5396 5397 5398
5408 5408 5408 5408 5408 5409 5410 5409 5408 5406 5405 5404 5402 5401 5399 5398 5397 5396 5394 5394 5393 5390 5387 5384 5381 5380 5379 5377 5375 5375 5373 5373 5373 5376 5376 5377 5379 5380 5381 5382 5383 5384 5385
5395 5395 5395 5395 5395 5395 5396 5396 5395 5393 5391 5390 5389 5387 5385 5384 5383 5381 5379 5379 5378 5377 5376 5374 5370 5368 5366 5365 5363 5361 5359 5358 5359 5361 5361 5363 5365 5366 5367 5368 5369 5370 5371
5382 5382 5382 5382 5381 5381 5381 5381 5381 5379 5377 5376 5375 5373 5372 5370 5368 5367 5365 5363 5362 5361 5360 5359 5358 5355 5353 5351 5350 5348 5346 5345 5345 5347 5347 5347 5350 5351 5354 5354 5354 5356 5357
5370 5369 5369 5368 5368 5367 5367 5367 5367 5364 5363 5361 5360 5359 5357 5356 5355 5353 5351 5349 5347 5345 5344 5343 5343 5341 5340 5338 5336 5334 5332 5331 5330 5332 5332 5332 5334 5336 5339 5340 5340 5340 5341
5357 5356 5356 5355 5354 5353 5353 5353 5353 5351 5349 5347 5345 5344 5343 5341 5340 5339 5336 5334 5332 5330 5329 5328 5327 5326 5324 5323 5322 5320 5319 5317 5316 5316 5318 5317 5318 5319 5321 5325 5325 5325 5325